[[{"header":{"parameterUnit":"m.s-1","parameterCategory":1,"la1":30.2991,"la2":30.254,"lo1":-89.0895,"lo2":-89.0444,"dy":0.0017,"dx":0.0017,"nx":28,"ny":28,"refTime":"2025-11-14T03:00:00:Z","depth":0,"parameterNumber":2,"parameterNumberName":"U-component_of_WINDS"},"data":[0,0,0,0,0,0,0,0,0,0,0,0,0,0,0,0,0,0,0,0,0,0,0,0,0,0,0,0,0,0,0,0,0,0,0,0,0,0,0,0,0,0,0,0,0,0,0,0,0,0,0,0,0,0,0,0,0,0,1.3189,1.3189,0,1.3192,1.3192,1.3192,1.3106,1.3103,1.3101,1.3099,1.3101,1.3104,1.3106,0,0,0,0,0,0,0,0,0,0,0,0,0,1.3111,1.3113,1.3189,1.3189,1.3189,1.3192,1.3192,1.3192,1.3106,1.3103,1.3101,1.3098,1.3101,1.3103,1.3106,0,0,0,0,0,0,0,0,0,0,0,0,0,1.3133,1.3114,1.3189,1.3147,1.3143,1.3192,1.3192,1.3192,1.3107,1.3103,1.31,1.3097,1.31,1.3103,1.3106,1.3196,0,0,1.3116,1.3118,0,0,0,0,0,0,0,0,1.3132,1.3136,1.3153,1.315,1.3146,1.3145,1.3165,1.3193,1.3108,1.3121,1.3099,1.3095,1.3119,1.312,1.3128,1.3196,1.3196,1.3117,1.3119,1.312,1.3121,0,0,0,0,0,0,0,1.313,1.3135,1.319,1.3153,1.3149,1.3128,1.3127,1.317,1.3139,1.3119,1.3113,1.3114,1.3116,1.3125,1.3128,1.3196,1.3117,1.312,1.3122,1.3123,1.3341,1.3345,0,0,0,0,0,0,1.3135,1.3135,1.319,1.319,1.313,1.3132,1.3132,1.3149,1.3138,1.3133,1.3117,1.311,1.3121,1.3124,1.3127,1.3234,1.312,1.3123,1.3125,1.3337,1.3342,1.3346,0,0,0,0,0,0,1.3133,1.314,1.319,1.3161,1.3166,1.3137,1.3157,1.3151,1.316,1.3137,1.3131,1.3133,1.3119,1.3123,1.318,1.3233,1.3125,1.3128,1.3333,1.3339,1.3344,1.3447,0,0,0,0,0,0,1.3131,1.314,1.3174,1.3162,1.3168,1.3243,1.3161,1.3153,1.3166,1.3157,1.315,1.3145,1.3116,1.3176,1.3184,1.3235,1.313,1.3328,1.3336,1.3342,1.3438,1.3455,1.3469,0,0,0,0,0,1.3129,1.3201,1.3176,1.3183,1.3208,1.3246,1.3249,1.3214,1.317,1.3204,1.319,1.3145,1.3226,1.3183,1.319,1.3244,1.3325,1.3333,1.3342,1.3431,1.3452,1.3469,0,0,0,0,0,0,1.3218,1.3199,1.317,1.3241,1.3246,1.3231,1.3272,1.3237,1.3254,1.3244,1.3201,1.32,1.3265,1.326,1.3212,1.3332,1.3267,1.3278,1.3333,1.3352,1.3367,1.3368,1.3133,0,0,0,0,0,1.3247,1.3279,1.326,1.3324,1.3328,1.3301,1.3315,1.3289,1.3292,1.3293,1.3283,1.3288,1.3315,1.3333,1.3356,1.3437,1.3436,1.3478,1.3494,1.3507,1.3517,1.3562,1.3582,1.3374,1.3374,1.3374,0,0,1.3305,1.3298,1.3321,1.3342,1.3343,1.3378,1.3302,1.3342,1.3368,1.3299,1.3353,1.3347,1.3349,1.342,1.3451,1.3418,1.3574,1.3518,1.3528,1.3531,1.3573,1.3593,1.361,1.338,1.3379,1.3378,0,0,1.3429,1.3426,1.3481,1.3484,1.3487,1.3468,1.3482,1.3473,1.3466,1.352,1.3471,1.3501,1.3547,1.3552,1.356,1.3691,1.3651,1.3699,1.378,1.3826,1.3842,1.3856,1.3905,1.3923,1.3709,1.3709,1.371,0,1.3501,1.3551,1.3514,1.3558,1.357,1.3511,1.3567,1.3571,1.3581,1.3591,1.3554,1.3613,1.3611,1.3683,1.3716,1.3724,1.3739,1.37,1.3843,1.3857,1.3869,1.3915,1.3933,1.3715,1.3715,1.3714,1.3714,0,1.3641,1.3677,1.3721,1.3734,1.375,1.38,1.3772,1.3793,1.3766,1.3752,1.381,1.3805,1.3828,1.3843,1.3816,1.3913,1.3893,1.385,1.3784,1.3896,1.3938,1.3955,1.3724,1.3722,1.372,1.3719,0,0,1.3819,1.3813,1.383,1.3836,1.3837,1.3864,1.3912,1.3935,1.3956,1.3965,1.4006,1.4048,1.401,1.402,1.3993,1.4033,1.4139,1.3985,1.3985,1.4016,1.4249,1.4282,1.4303,1.4113,1.4116,1.4119,1.4249,0,1.3941,1.4023,1.3993,1.4077,1.4112,1.4058,1.41,1.4106,1.4095,1.4123,1.411,1.4142,1.4087,1.4094,1.413,1.4119,1.4186,1.4109,1.4152,1.4154,1.4154,1.4324,1.4359,1.4482,1.4265,1.4268,1.427,0,1.4093,1.4112,1.42,1.4198,1.4211,1.4249,1.427,1.4297,1.4303,1.4292,1.4306,1.4271,1.432,1.4255,1.4322,1.4271,1.4287,1.4284,1.4288,1.4292,1.4219,1.4334,1.452,1.4539,1.4295,1.4293,1.4292,0,1.4218,1.4264,1.4323,1.433,1.4328,1.4357,1.4358,1.436,1.4377,1.4395,1.4406,1.4429,1.4442,1.4461,1.4435,1.439,1.4508,1.444,1.4502,1.4503,1.4529,1.4528,1.4722,1.4538,1.4537,1.4537,1.4537,0,1.4357,1.4414,1.438,1.4416,1.4479,1.4445,1.4508,1.4502,1.4506,1.4542,1.4496,1.4531,1.4494,1.4526,1.4505,1.4566,1.4572,1.4566,1.456,1.457,1.4572,1.4581,1.4572,1.4542,1.4541,1.454,1.4539,0,1.4506,1.4485,1.4547,1.4541,1.4541,1.4588,1.4583,1.4618,1.4604,1.4651,1.466,1.4639,1.4674,1.465,1.4685,1.4672,1.4752,1.4734,1.475,1.4746,1.481,1.4805,1.5017,1.5044,1.4842,1.4844,1.4846,0,1.4597,1.464,1.4639,1.4661,1.4665,1.4699,1.4717,1.4685,1.4706,1.4718,1.4752,1.4784,1.4807,1.4867,1.4855,1.4883,1.4865,1.4938,1.4869,1.4879,1.4869,1.4867,1.4872,1.4952,1.4954,1.4956,1.4958,0,1.4761,1.475,1.4777,1.4803,1.4826,1.4843,1.4858,1.4878,1.4846,1.4872,1.4908,1.4927,1.4964,1.4997,1.5021,1.5022,1.4986,1.498,1.4996,1.5008,1.5017,1.5015,1.479,1.4975,1.4973,1.4972,1.4971,1.497,1.4885,1.4922,1.4928,1.4961,1.4969,1.4985,1.5018,1.501,1.504,1.5069,1.5048,1.5092,1.51,1.5128,1.5135,1.5169,1.514,1.5162,1.5168,1.5175,1.5185,1.5011,1.5173,1.5173,1.5172,1.5172,1.5171,0,1.5048,1.5051,1.5082,1.5104,1.5132,1.5096,1.5111,1.5136,1.5176,1.5186,1.5212,1.5255,1.5288,1.528,1.531,1.5339,1.5324,1.5348,1.5346,1.5348,1.5208,1.5192,1.5361,1.5361,1.5361,1.5361,1.5361,1.5361,1.5136,1.5198,1.5188,1.5254,1.5256,1.5299,1.5311,1.5326,1.5335,1.5386,1.5413,1.5409,1.5413,1.5443,1.5472,1.5469,1.5483,1.5514,1.5506,1.5376,1.5357,1.5339,1.5324,1.5517,1.5517,1.5642,1.5643,1.5644]},{"header":{"parameterUnit":"m.s-1","parameterCategory":1,"la1":30.2991,"la2":30.254,"lo1":-89.0895,"lo2":-89.0444,"dy":0.0017,"dx":0.0017,"nx":28,"ny":28,"refTime":"2025-11-14T03:00:00:Z","depth":0,"parameterNumber":3,"parameterNumberName":"V-component_of_WINDS"},"data":[0,0,0,0,0,0,0,0,0,0,0,0,0,0,0,0,0,0,0,0,0,0,0,0,0,0,0,0,0,0,0,0,0,0,0,0,0,0,0,0,0,0,0,0,0,0,0,0,0,0,0,0,0,0,0,0,0,0,-1.2789,-1.2789,0,-1.2802,-1.2802,-1.2802,-1.2782,-1.2781,-1.278,-1.278,-1.2792,-1.2793,-1.2794,0,0,0,0,0,0,0,0,0,0,0,0,0,-1.2747,-1.2748,-1.2789,-1.2789,-1.2789,-1.2802,-1.2802,-1.2802,-1.2782,-1.2781,-1.278,-1.2779,-1.2792,-1.2793,-1.2794,0,0,0,0,0,0,0,0,0,0,0,0,0,-1.2763,-1.2749,-1.2789,-1.2781,-1.278,-1.2802,-1.2802,-1.2802,-1.2782,-1.2781,-1.278,-1.2779,-1.2792,-1.2793,-1.2795,-1.2825,0,0,-1.2799,-1.28,0,0,0,0,0,0,0,0,-1.2763,-1.2765,-1.2782,-1.2781,-1.278,-1.2789,-1.2792,-1.281,-1.2782,-1.2781,-1.2779,-1.2778,-1.2792,-1.2793,-1.2798,-1.2826,-1.2826,-1.2799,-1.28,-1.2801,-1.2801,0,0,0,0,0,0,0,-1.2761,-1.2764,-1.2794,-1.2782,-1.2781,-1.2777,-1.2778,-1.2795,-1.2792,-1.2781,-1.278,-1.2782,-1.2792,-1.2797,-1.2798,-1.2826,-1.2799,-1.2801,-1.2801,-1.2802,-1.2881,-1.2882,0,0,0,0,0,0,-1.2761,-1.2763,-1.2794,-1.2794,-1.2769,-1.2778,-1.2779,-1.2787,-1.2792,-1.2792,-1.2782,-1.2781,-1.2795,-1.2797,-1.2799,-1.2835,-1.2801,-1.2802,-1.2803,-1.288,-1.2882,-1.2883,0,0,0,0,0,0,-1.276,-1.2764,-1.2793,-1.2779,-1.2782,-1.278,-1.2789,-1.2788,-1.2793,-1.2793,-1.2792,-1.2788,-1.2794,-1.2797,-1.2819,-1.2836,-1.2803,-1.2804,-1.2879,-1.2881,-1.2882,-1.2909,0,0,0,0,0,0,-1.2759,-1.2764,-1.2775,-1.2779,-1.2783,-1.2813,-1.279,-1.2789,-1.2796,-1.2794,-1.2798,-1.2798,-1.2793,-1.2817,-1.2821,-1.2837,-1.2805,-1.2877,-1.2879,-1.2882,-1.2906,-1.2911,-1.2916,0,0,0,0,0,-1.2758,-1.2782,-1.2776,-1.2779,-1.2797,-1.2814,-1.2816,-1.281,-1.2797,-1.2809,-1.2809,-1.2798,-1.2834,-1.2819,-1.2823,-1.2841,-1.2876,-1.2879,-1.2881,-1.2904,-1.291,-1.2915,0,0,0,0,0,0,-1.2779,-1.2782,-1.2775,-1.2801,-1.2807,-1.281,-1.2824,-1.2816,-1.2826,-1.2824,-1.2816,-1.2817,-1.2842,-1.2843,-1.2828,-1.2871,-1.2853,-1.2856,-1.2869,-1.2875,-1.2879,-1.2878,-1.2807,0,0,0,0,0,-1.2787,-1.28,-1.2802,-1.2825,-1.2828,-1.2826,-1.2833,-1.2828,-1.2835,-1.2837,-1.2839,-1.2845,-1.2858,-1.2867,-1.2878,-1.2907,-1.2908,-1.2921,-1.2926,-1.2929,-1.2932,-1.2949,-1.2955,-1.2892,-1.2892,-1.2892,0,0,-1.2802,-1.2806,-1.2814,-1.2829,-1.2833,-1.2848,-1.2828,-1.2844,-1.2855,-1.2839,-1.2861,-1.2863,-1.287,-1.2896,-1.2907,-1.2898,-1.2951,-1.2933,-1.2936,-1.2937,-1.2953,-1.2959,-1.2964,-1.2894,-1.2893,-1.2893,0,0,-1.2838,-1.2842,-1.2862,-1.2867,-1.2875,-1.2873,-1.2878,-1.2883,-1.2884,-1.2905,-1.2894,-1.2908,-1.2929,-1.2935,-1.2941,-1.2983,-1.2973,-1.2987,-1.301,-1.3026,-1.3031,-1.3036,-1.3051,-1.3056,-1.299,-1.299,-1.299,0,-1.2857,-1.2878,-1.2873,-1.289,-1.2897,-1.2885,-1.2905,-1.2911,-1.2921,-1.2927,-1.2917,-1.2945,-1.2949,-1.2977,-1.2987,-1.2992,-1.2998,-1.2985,-1.3031,-1.3035,-1.3039,-1.3054,-1.306,-1.2991,-1.2991,-1.2991,-1.2991,0,-1.2901,-1.2916,-1.2931,-1.2943,-1.2952,-1.2971,-1.2969,-1.2979,-1.2974,-1.2974,-1.2997,-1.3002,-1.3015,-1.3021,-1.3016,-1.3049,-1.3043,-1.3032,-1.3013,-1.3047,-1.3061,-1.3066,-1.2994,-1.2993,-1.2993,-1.2992,0,0,-1.2948,-1.2958,-1.2964,-1.297,-1.2978,-1.299,-1.3009,-1.3023,-1.3032,-1.304,-1.3056,-1.3076,-1.3067,-1.3074,-1.307,-1.3084,-1.3118,-1.3071,-1.3072,-1.308,-1.3155,-1.3163,-1.317,-1.3112,-1.3113,-1.3114,-1.3155,0,-1.2984,-1.3017,-1.3014,-1.3045,-1.306,-1.305,-1.3067,-1.3074,-1.3075,-1.3088,-1.309,-1.3104,-1.309,-1.3095,-1.3109,-1.3111,-1.3133,-1.3108,-1.3127,-1.3128,-1.3125,-1.3176,-1.3184,-1.3223,-1.316,-1.3161,-1.3161,0,-1.303,-1.3041,-1.3074,-1.3083,-1.3089,-1.3104,-1.3117,-1.3129,-1.3138,-1.3138,-1.3147,-1.3141,-1.3161,-1.3143,-1.3171,-1.3154,-1.3162,-1.3165,-1.3166,-1.3167,-1.3146,-1.3179,-1.3235,-1.324,-1.317,-1.3169,-1.3168,0,-1.3062,-1.3085,-1.3108,-1.3114,-1.3124,-1.3135,-1.3139,-1.3147,-1.3156,-1.3168,-1.3174,-1.3187,-1.3195,-1.3206,-1.3204,-1.3191,-1.3233,-1.3214,-1.3234,-1.3234,-1.3242,-1.3242,-1.33,-1.3248,-1.3248,-1.3248,-1.3248,0,-1.3102,-1.3122,-1.3123,-1.3137,-1.316,-1.3157,-1.3181,-1.3184,-1.3192,-1.3207,-1.3199,-1.3214,-1.3211,-1.3226,-1.3225,-1.3248,-1.3252,-1.3253,-1.3252,-1.3253,-1.3253,-1.3258,-1.3255,-1.325,-1.3249,-1.3249,-1.3249,0,-1.314,-1.3141,-1.3166,-1.3174,-1.3177,-1.3194,-1.3201,-1.3215,-1.3217,-1.3236,-1.324,-1.3243,-1.326,-1.326,-1.3279,-1.3279,-1.3308,-1.3304,-1.3305,-1.3304,-1.3324,-1.3322,-1.3387,-1.3396,-1.3338,-1.3339,-1.3339,0,-1.3165,-1.3181,-1.3192,-1.3202,-1.3208,-1.3223,-1.3233,-1.3231,-1.3242,-1.3255,-1.3267,-1.3284,-1.3297,-1.3325,-1.3329,-1.3344,-1.3341,-1.3363,-1.3343,-1.3344,-1.3341,-1.334,-1.3342,-1.3366,-1.3367,-1.3367,-1.3368,0,-1.321,-1.3211,-1.3225,-1.324,-1.3252,-1.3263,-1.3274,-1.3283,-1.3283,-1.3295,-1.3313,-1.3323,-1.3344,-1.3361,-1.3376,-1.3381,-1.3375,-1.3374,-1.3379,-1.338,-1.338,-1.3381,-1.3315,-1.3372,-1.3372,-1.3371,-1.3371,-1.3371,-1.3243,-1.3257,-1.3267,-1.3284,-1.3292,-1.3303,-1.3317,-1.3321,-1.3336,-1.3353,-1.3352,-1.3372,-1.3382,-1.3402,-1.3409,-1.3425,-1.3418,-1.3425,-1.3427,-1.3429,-1.3431,-1.3378,-1.3428,-1.3428,-1.3428,-1.3428,-1.3428,0,-1.3287,-1.3294,-1.3309,-1.3325,-1.3339,-1.3333,-1.3345,-1.3357,-1.3375,-1.3385,-1.3399,-1.3421,-1.3438,-1.3444,-1.3461,-1.3472,-1.347,-1.3477,-1.3476,-1.3477,-1.3437,-1.3431,-1.3479,-1.3479,-1.3479,-1.3479,-1.3479,-1.3479,-1.3312,-1.3336,-1.3338,-1.3367,-1.3374,-1.3394,-1.3401,-1.3412,-1.342,-1.3445,-1.3459,-1.3464,-1.3473,-1.3491,-1.3506,-1.3508,-1.3514,-1.3523,-1.3523,-1.3485,-1.348,-1.3475,-1.3469,-1.3524,-1.3524,-1.3562,-1.3562,-1.3562]}]]